User: anonymous   Login
Location: Unspecified
(0.0000°N, 0.0000°E)
Time: 01:25:52
(UTC+00:00)
Language:

TRS 6 - Orbit

View from above orbital plane
View from above orbital plane
View from above satellite
View from above satellite

Ground track
Ground track

The orbit data is extracted from the following two-line orbital elements,

1   608U 63014C   19287.33546736 -.00000004 +00000-0 -32051-2 0  9991
2   608 087.3255 066.0483 0082387 001.7491 358.3639 08.65289346782626
Epoch (UTC): 14 October 2019 08:03:04
Eccentricity: 0.0082387
inclination: 87.3255°
perigee height: 3561 km
apogee height: 3726 km
right ascension of ascending node: 66.0483°
argument of perigee: 1.7491°
revolutions per day: 8.65289346
mean anomaly at epoch: 358.3639°
orbit number at epoch: 78262

The dashed part of the orbit path shows where the satellite is in the earth's shadow,  

DLR